SAZMSABE

Guest
Details From SAZM - Mar Del Plata Brig Gen D Bartolome
To SABE - Aeroparque Jorge Newbery
Flight Number -
Tags Generated
Created
Modified
Stats Distance 207 nm / 383 km
Max Altitude 0 ft / 0 m
Waypoints 2
Social Downloads 9
Likes 0
Share VATSIM

Download

Looking for another format? Having issues loading an existing format? Contact us
Advertisement - Login to hide

Notes

Generated

Route

SAZM SABE

ID Type Via Altitude Latitude Longitude Leg Dist Tot Dist Heading (true) Name
O SAZM APT - 0 ft / 0 m -37.92886˚ -57.58393˚ - 0 nm - -
O SABE APT - 0 ft / 0 m -34.55416˚ -58.42526˚ 206 nm 206 nm 348° / 349° -

Altitude Profile

Advertisement - Login to hide

Weather


0- 5 10 15 20 25 30 35+ Temperature / ° C

Clouds and Precipitation
Forecast for 2018-05-27 00:00 UTC. Updated 42 minutes ago

Ground ~20,000 ft ~40,000 ft Winds

SAZM

Details ICAO SAZM (MDQ)
Name Mar Del Plata Brig Gen D Bartolome
Region Argentina
Timezone America/Argentina/Buenos_Aires (UTC-3.0)
Stats Elevation 71 ft / 22 m (AMSL)
Location -37.934190° -57.573395°
Runways 1
Magnetic Variation 7.646° W

METAR

SAZM 270000Z 36008KT CAVOK 11/10 Q1014

Decode

TAF

TAF SAZM 262300Z 2700/2724 02005KT CAVOK TX16/2719Z TN09/2710Z BECMG 2704/2706 7000 BECMG 2708/2709 VRB05KT 2000 BR OVC008 PROB30 TEMPO 2710/2712 0800 BCFG OVC006 BECMG 2713/2715 05005KT 9999 BKN020

Decode

Departure Runways

ID Width Length Bearing (true) Bearing (mag) Surface Threshold Offset Overrun Length
13 197 ft / 60 m 7,204 ft / 2,196 m 122.66° 130.31° Asphalt 0 ft / 0 m 196 ft / 60 m
31 197 ft / 60 m 7,204 ft / 2,196 m 302.65° 310.30° Asphalt 0 ft / 0 m 0 ft / 0 m

SABE

Details ICAO SABE (AEP)
Name Aeroparque Jorge Newbery
Region Argentina
Timezone Unknown (UTC+0.0)
Stats Elevation 17 ft / 5 m (AMSL)
Location -34.559414° -58.415749°
Runways 1
Magnetic Variation 9.055° W

METAR

SABE 270000Z 06003KT CAVOK 17/15 Q1015 NOSIG

Decode

TAF

TAF SABE 262300Z 2700/2724 09005KT CAVOK TX21/2719Z TN14/2710Z BECMG 2703/2705 02005KT 9999 BKN025 BECMG 2716/2718 09010KT 9999 SCT020 BKN200

Decode

Destination Runways

ID Width Length Bearing (true) Bearing (mag) Surface Threshold Offset Overrun Length
13 131 ft / 40 m 6,882 ft / 2,098 m 123.87° 132.92° Concrete 0 ft / 0 m 791 ft / 241 m
31 131 ft / 40 m 6,882 ft / 2,098 m 303.86° 312.91° Concrete 991 ft / 302 m 0 ft / 0 m

Approach Navaids

Runway Type Ident Frequency Range Bearing (true) Bearing (mag) Slope Elevation
13 Localiser AE 109.50 MHz 18 nm / 33 km 123.95° 133.01° - 17 ft / 5 m (AMSL)
13 Glidescope AE 109.50 MHz 10 nm / 19 km 124.47° 133.52° 3.00° 17 ft / 5 m (AMSL)
13 DME AE 109.50 MHz 18 nm / 33 km - - - 17 ft / 5 m (AMSL)

Popular Alternatives